SCP
0 0 0 0 0 0 0 0 0 0 0 0 0 0 0 0 0 1 1 1 1 1 1 1 1 1 1 1 1 1 1 1 0 0 0 0 0 0 0 0 0 0 0 0
0 0 0 0 0 0 0 0 0 0 0 0 0 0 0 0 0 1 1 1 1 1 1 1 1 1 1 1 1 1 1 1 1 0 0 0 0 0 0 0 0 0 0 0
0 0 0 0 0 0 0 0 0 0 0 0 0 0 0 0 0 1 1 1 1 1 1 1 1 1 1 1 1 1 1 1 1 1 0 0 0 0 0 0 0 0 0 0
0 0 0 0 0 0 0 0 0 0 0 0 0 0 0 0 0 1 1 1 1 1 1 1 1 1 1 1 1 1 1 1 1 1 0 0 0 0 0 0 0 0 0 0
0 0 -0 0 0 0 0 0 0 0 0 0 0 0 0 0 0 1 1 1 1 1 1 1 1 1 1 1 1 1 1 1 1 1 1 0 0 0 0 0 0 0 0 0
0 0 0 0 0 0 0 0 0 0 0 0 0 0 0 0 0 0 0 1 1 1 1 1 1 1 1 1 1 1 1 1 1 1 1 1 0 0 0 0 0 0 0 0
0 0 0 0 0 0 0 0 0 0 0 0 0 0 0 0 0 0 0 0 1 1 1 1 1 1 1 1 1 1 1 1 1 1 1 1 0 0 0 0 0 0 0 0
0 0 0 0 0 0 0 0 0 0 0 0 0 0 0 0 0 0 0 0 1 1 1 1 1 1 1 1 1 1 1 1 1 1 1 1 1 0 0 0 0 0 0 0
0 0 0 0 0 0 0 0 0 0 0 0 0 0 0 0 0 0 0 1 1 1 1 1 1 1 1 1 1 1 1 1 1 1 1 1 1 1 0 0 0 0 0 0
0 0 0 0 0 0 0 0 0 0 0 0 0 0 0 0 0 0 1 1 1 1 1 1 1 1 1 1 1 1 1 1 1 1 1 1 1 1 0 0 0 0 0 0
0 0 0 0 0 0 0 0 0 0 0 0 0 0 0 0 0 1 1 1 1 1 1 1 1 1 1 1 1 1 1 1 1 1 1 1 1 1 0 0 0 0 0 0
0 0 0 0 0 0 0 -0 0 0 0 0 0 0 0 0 0 1 1 1 1 1 1 1 1 1 1 1 1 1 1 1 1 1 1 1 1 1 0 0 0 0 0 0
0 0 0 0 0 0 0 0 0 0 0 0 0 0 0 0 1 1 1 1 1 1 1 1 1 1 1 1 1 1 1 1 1 1 1 1 1 1 1 0 0 0 0 0
0 0 0 0 0 0 0 0 0 0 0 0 0 0 0 0 1 1 1 1 1 1 1 1 1 1 1 1 1 1 1 1 1 1 1 1 1 1 1 1 1 0 0 0
0 0 0 0 0 0 0 0 0 0 0 0 0 0 0 1 1 1 1 1 1 1 1 1 1 1 1 1 1 1 1 2 2 2 2 2 1 1 1 1 1 1 1 1
0 0 0 0 0 0 0 0 0 0 0 0 0 0 0 1 1 1 1 1 1 1 1 1 1 2 2 2 2 1 1 2 2 2 2 2 2 1 1 1 1 1 1 1
0 0 0 0 0 0 0 0 0 0 0 0 0 0 1 1 1 1 1 2 2 2 2 2 2 2 2 2 2 2 2 2 2 2 2 2 2 1 1 1 1 1 1 1
0 0 0 0 0 0 0 0 0 0 0 0 0 1 1 1 2 2 2 2 2 2 2 3 3 3 2 2 2 2 2 3 3 3 2 2 2 2 1 1 1 1 1 1
0 0 0 0 0 0 0 0 0 0 0 0 1 1 1 2 3 3 3 3 3 3 3 3 3 3 3 2 2 3 3 3 3 3 3 2 2 2 1 1 1 1 1 1
0 0 0 0 0 0 0 0 0 0 0 1 1 1 2 2 3 3 4 4 4 4 4 3 3 3 3 3 3 3 3 3 3 3 3 2 2 2 2 1 1 1 1 1
0 0 0 0 0 0 0 0 0 0 0 1 1 1 2 2 3 3 4 4 4 4 4 4 3 3 3 3 3 3 3 3 3 3 3 2 2 2 1 1 1 1 1 1
0 0 0 0 0 0 0 0 0 0 1 1 1 2 2 3 3 4 4 4 4 4 4 3 3 3 3 3 3 3 3 3 3 3 3 2 2 2 1 1 1 1 1 1
0 0 0 0 0 0 0 0 0 1 1 1 2 2 3 4 4 4 4 4 4 3 3 3 3 3 2 2 3 3 3 3 3 3 2 2 2 1 1 1 1 1 1 1
0 0 0 0 0 0 1 1 1 1 1 2 2 3 4 4 4 4 4 3 3 3 3 2 3 2 2 2 3 3 3 2 2 2 2 1 1 1 1 1 1 1 1 1
0 0 0 0 0 1 1 1 1 1 2 2 3 3 4 4 4 4 3 3 3 3 2 2 2 2 2 2 2 2 2 2 2 2 1 1 1 1 1 1 0 0 0 0
0 0 0 0 0 0 1 1 1 1 2 2 3 3 3 3 3 3 3 2 2 2 2 2 2 2 2 2 2 2 2 2 2 2 1 1 1 1 1 0 0 0 0 0
Wind_Speed
3 2 4 8 8 8 6 4 4 5 4 4 6 8 13 14 13 12 11 11 12 12 10 10 11 11 10 8 8 8 7 6 4 3 3 2 2 2 2 3 5 5 5 5
4 5 11 9 7 5 4 3 2 3 2 4 5 5 9 12 15 15 15 14 13 10 9 10 10 10 10 10 9 8 8 7 6 4 3 3 3 2 2 2 3 5 5 5
7 10 7 5 6 4 4 3 3 3 2 3 5 1 3 6 6 9 13 13 14 15 14 13 12 11 11 11 11 9 8 7 6 5 3 2 1 0 0 1 2 3 4 4
7 9 7 6 6 4 5 6 4 2 3 1 3 2 5 6 6 9 11 12 14 14 13 13 13 12 12 12 10 9 8 7 6 6 5 5 4 3 3 2 2 3 3 4
6 5 5 6 7 4 7 4 2 1 3 1 1 3 6 4 7 11 13 14 15 15 15 15 14 13 12 11 10 9 8 7 7 6 6 5 4 3 2 2 2 2 2 3
8 6 5 6 6 4 2 3 6 6 5 1 4 4 6 8 13 13 13 14 14 14 14 13 12 10 9 9 9 9 9 8 7 7 6 6 5 4 3 3 3 2 1 2
7 8 6 3 3 6 3 6 5 5 5 5 4 3 10 11 11 15 16 15 14 13 13 12 12 11 10 11 11 10 10 9 8 8 7 6 6 6 5 4 4 3 2 2
4 8 7 3 6 5 3 10 8 5 5 6 4 4 9 8 9 10 12 13 13 12 12 13 13 13 13 12 11 10 10 9 8 8 7 6 6 4 4 4 3 4 3 3
6 8 8 6 5 7 3 4 10 8 3 1 5 6 8 2 3 6 9 11 13 13 13 13 13 12 12 12 12 12 11 9 9 9 7 6 6 5 5 4 4 3 3 2
7 5 8 6 2 2 8 7 6 6 5 2 5 4 5 3 4 6 10 11 11 11 11 11 11 12 11 11 10 10 11 10 9 8 7 7 6 6 5 4 4 4 3 2
5 5 8 4 2 4 0 2 5 5 6 7 3 7 7 8 9 10 11 11 12 12 11 11 10 10 9 8 9 10 10 9 8 8 7 6 6 5 5 4 4 4 3 3
1 5 5 8 7 5 6 6 7 5 4 5 5 9 6 6 7 9 10 11 12 12 12 11 10 9 8 8 9 9 9 9 9 8 7 6 6 5 5 5 5 4 4 3
1 5 0 8 8 6 0 2 5 6 5 4 4 8 4 2 4 6 10 10 11 10 9 8 9 9 9 8 8 9 9 10 9 8 7 7 6 6 6 6 5 4 4 3
4 4 6 8 8 4 4 4 1 6 4 4 6 6 3 1 4 5 7 10 11 10 10 9 8 8 8 8 8 8 9 9 9 9 8 8 8 7 6 5 5 4 4 4
6 2 1 4 5 2 3 4 2 2 6 7 7 6 7 6 7 7 8 8 8 8 8 9 7 6 7 6 5 6 7 8 9 9 8 8 7 6 6 5 4 4 4 4
5 2 3 4 4 4 4 4 3 2 2 3 3 4 5 4 4 6 8 10 9 9 9 10 10 9 9 9 8 7 7 8 8 9 9 7 6 6 6 5 5 4 4 3
2 3 3 3 5 4 4 3 1 1 2 3 4 6 2 2 4 7 9 10 9 9 8 8 8 9 9 9 8 8 8 8 8 8 7 7 7 6 5 6 5 5 4 4
3 2 2 1 3 4 9 3 0 0 2 0 1 2 4 4 3 4 6 8 7 6 7 7 7 6 6 6 6 6 7 8 8 8 7 7 7 6 4 4 5 5 4 4
6 6 2 2 1 6 6 4 2 1 5 3 1 1 3 4 6 4 2 3 6 6 6 6 6 5 5 7 7 7 6 7 7 8 8 8 8 7 7 6 4 3 3 3
3 5 4 2 2 5 6 7 5 2 4 4 3 4 3 4 4 3 2 1 3 4 4 4 4 5 4 4 6 7 6 6 6 7 7 8 8 8 7 6 5 3 3 4
4 2 3 4 4 7 5 8 5 2 6 5 1 3 2 2 5 5 2 2 3 4 4 5 5 4 3 4 6 6 5 5 5 5 6 6 7 7 6 5 4 4 4 4
2 1 2 3 4 7 6 5 1 5 5 3 3 1 1 3 4 4 4 4 4 4 4 5 5 4 2 3 5 5 4 3 4 5 5 6 6 5 5 5 4 4 4 4
2 5 4 5 7 6 3 2 4 2 2 3 1 1 4 5 4 5 4 4 5 4 4 4 5 4 3 2 4 5 3 3 4 5 4 4 5 4 4 5 4 3 3 3
3 1 1 2 4 4 3 2 3 2 2 3 1 2 3 4 5 4 4 4 5 4 4 4 5 4 2 2 3 4 3 4 6 6 5 5 5 4 4 3 3 3 3 3
4 2 1 3 5 6 6 7 6 5 4 5 2 2 3 5 6 5 4 4 4 4 3 4 4 4 2 2 4 3 4 5 5 6 5 4 4 5 4 4 2 3 2 3
3 3 3 4 4 2 5 7 8 6 4 3 1 2 2 3 5 5 4 3 3 3 3 4 3 3 2 3 3 2 3 4 5 5 4 4 4 4 5 5 4 6 4 3
Wind_Direction
329 68 246 241 221 215 223 244 252 246 204 155 162 161 172 176 176 175 178 178 178 181 179 169 168 166 162 163 164 164 164 176 166 163 171 172 194 201 202 206 201 194 192 186
354 274 243 242 249 243 236 256 272 287 168 141 154 170 182 181 184 179 180 182 180 176 171 174 171 170 171 173 174 172 172 177 179 181 178 177 177 199 202 212 201 196 193 188
225 247 263 260 255 254 274 218 211 215 25 46 102 32 204 207 189 182 184 182 179 179 179 180 178 178 176 180 181 181 180 180 184 179 163 155 125 61 194 213 205 205 188 189
245 255 268 264 257 234 267 240 201 168 99 274 131 187 247 205 201 197 190 185 185 184 180 182 181 182 185 187 183 179 178 178 182 175 171 176 183 195 212 204 203 209 197 195
261 268 273 261 250 227 232 232 186 141 127 55 10 138 266 193 203 210 198 194 192 186 181 183 185 186 186 182 180 179 175 179 183 181 179 181 191 198 201 194 193 205 209 209
253 264 235 234 260 247 226 44 28 47 68 4 250 163 252 209 203 203 201 200 193 184 181 182 183 178 178 177 178 176 176 184 183 183 182 186 191 189 185 196 199 210 215 227
299 298 282 252 293 318 69 80 32 359 9 253 254 182 241 227 205 194 192 194 188 182 176 174 174 176 179 179 179 177 178 184 184 184 188 191 192 189 193 196 198 197 202 217
234 280 271 240 197 213 201 137 155 193 221 272 308 232 252 233 203 191 185 180 175 176 175 177 179 181 182 180 178 177 181 184 184 186 191 191 188 186 191 194 190 193 198 209
196 250 275 261 223 169 184 184 170 145 175 267 285 287 307 354 159 160 161 161 167 173 175 178 177 180 180 179 182 181 182 184 186 188 188 189 189 188 192 193 189 192 202 210
176 241 278 282 329 276 175 166 102 117 149 241 289 274 244 236 185 159 154 159 164 170 172 175 178 177 181 183 180 177 181 185 186 186 189 192 191 190 190 186 188 191 199 205
171 192 282 327 211 224 166 113 117 127 152 158 225 266 235 200 185 167 161 161 160 163 172 181 177 174 174 171 173 178 183 183 184 186 186 182 180 181 177 178 186 188 195 197
184 148 243 260 254 217 177 178 146 151 218 168 172 260 267 195 169 153 156 158 158 163 171 174 167 161 163 171 173 178 182 182 183 180 175 175 177 177 178 183 188 186 191 196
91 112 52 324 332 350 23 181 153 140 131 153 165 262 309 109 128 145 148 157 160 161 163 158 158 163 171 178 178 178 181 183 179 173 173 174 179 181 185 189 188 185 186 188
87 106 161 204 226 252 279 288 163 123 149 206 213 236 294 112 140 157 160 161 161 162 161 158 162 166 170 180 181 182 185 181 176 174 176 182 188 188 188 186 183 181 176 176
68 95 207 238 248 248 270 288 284 197 191 189 224 212 225 195 176 171 158 150 150 158 161 163 165 176 173 171 181 195 191 182 176 174 182 189 187 180 174 173 176 174 175 176
43 58 13 334 338 337 320 309 300 277 224 199 183 240 240 203 157 153 149 148 155 165 176 177 173 182 181 177 184 194 195 184 175 178 185 180 174 174 175 171 164 169 173 163
24 61 43 302 318 3 298 276 303 321 313 178 198 234 216 130 162 170 162 153 157 163 171 180 180 183 183 180 178 182 185 176 175 180 177 171 167 168 178 171 167 174 178 164
149 98 132 264 13 239 243 266 100 102 322 27 203 220 168 166 178 167 152 154 161 162 159 163 172 177 175 170 166 165 165 164 166 166 165 162 163 158 157 160 174 176 168 164
157 145 135 129 220 275 293 318 341 310 300 320 80 80 97 109 77 57 47 138 162 165 163 161 162 161 163 166 165 152 156 159 160 164 169 165 160 155 158 169 171 170 162 157
71 113 131 151 187 239 265 302 307 77 285 313 106 131 144 102 97 231 280 92 116 122 134 135 124 118 132 157 149 146 152 152 165 174 171 164 160 160 163 167 166 159 152 153
15 30 151 189 220 254 279 314 10 83 255 309 298 181 171 180 182 190 169 112 117 108 100 108 113 115 143 155 147 147 148 162 173 163 156 158 160 158 156 157 156 150 148 145
185 177 206 171 207 252 310 8 42 246 280 302 306 263 128 116 119 123 123 114 102 97 97 102 103 101 107 129 134 131 152 167 145 137 141 149 152 152 148 147 151 154 153 153
187 188 197 198 219 240 273 241 247 238 292 300 335 12 117 116 124 125 128 125 114 111 110 106 105 96 85 100 129 131 146 133 124 122 125 127 132 138 140 143 146 144 147 149
295 334 108 292 271 292 318 336 334 352 331 309 259 137 126 129 128 118 120 125 116 110 109 100 102 98 91 102 110 126 139 138 136 131 134 133 129 121 116 114 124 134 147 153
273 329 338 286 301 335 348 351 341 340 349 347 341 102 121 137 131 125 125 126 122 122 118 113 114 116 114 120 114 129 137 132 130 130 131 130 125 127 116 105 101 129 146 172
240 202 196 240 255 251 289 317 339 332 325 332 40 63 63 116 125 121 124 132 132 131 129 125 128 125 132 135 125 129 139 134 135 135 140 143 136 132 136 131 94 54 72 77